Location: *
(32.8667°N, 13.1833°E)
Time: 05:00:57
(UTC+00:00)

Cosmos 2278 Rocket - Pass Details

Date: 18 July 2019
Orbit: 840 x 847 km, 71.0° (Epoch: 20 August)

Event Time Altitude Azimuth Distance (km) Brightness Sun altitude
Rises 21:39:38 0° 351° (N) 3,407 6.4 -31.7°
Reaches altitude 10° 21:42:26 10° 3° (N) 2,470 5.3 -31.9°
Enters shadow 21:46:21 27° 45° (NE) 1,560 3.7 -32.3°
